Erie, CO

11:42 AM MDT on May 28, 2017 (GMT -0600)
Erie Municipal Airport

Weather History for KEIK - May, 2013

Change the Weather History Date:

Sunday, May 26, 2013

  Actual Average (KBJC) Record (KBJC)
Temperature  
Mean Temperature 66 °F -  
Max Temperature 84 °F 73 °F 89 °F (2012)
Min Temperature 47 °F 49 °F 38 °F (1989)
Growing Degree Days 16 (Base 50)    
Moisture  
Dew Point 35 °F    
Average Humidity 37    
Maximum Humidity 78    
Minimum Humidity 9    
Precipitation  
Precipitation 0.00 in - - ()
Sea Level Pressure  
Sea Level Pressure 29.91 in    
Wind  
Wind Speed 3 mph (SSE)    
Max Wind Speed 18 mph    
Max Gust Speed 30 mph    
Visibility 10 miles    
Events Thunderstorm    
Averages and records for this station are not official NWS values.
T = Trace of Precipitation, MM = Missing Value Source: NWS Daily Summary

Daily Weather History Graph

Daily Weather History Graph

Search for Another Location

Airport or City:

Trip Planner

Search our weather history database for the weather conditions in past years. The results will help you decide how hot, cold, wet, or windy it might be!

Date:

Astronomy

May. 26, 2013 Rise Set
Actual Time 5:36 AM MDT 8:18 PM MDT
Civil Twilight 5:04 AM MDT 8:50 PM MDT
Nautical Twilight 4:25 AM MDT 9:30 PM MDT
Astronomical Twilight 3:40 AM MDT 10:15 PM MDT
Moon 10:08 PM MDT (5/26) 7:08 AM MDT (5/26)
Length of Visible Light 15h 45m
Length of Day
14h 42m
Waning Gibbous, 96% of the Moon is Illuminated
May 26
Waning Gibbous
May 31
Last Quarter
Jun 8
New
Jun 16
First Quarter
Jun 23
Full

Hourly Weather History & Observations

Time (MDT) Temp. Dew Point Humidity Pressure Visibility Wind Dir Wind Speed Gust Speed Precip Events Conditions
12:15 AM 63.0 °F 44.2 °F 50% 29.91 in 10.0 mi SW 3.5 mph - N/A   Clear
12:35 AM 61.3 °F 42.4 °F 50% 29.92 in 10.0 mi Calm Calm - N/A   Clear
12:55 AM 57.0 °F 42.4 °F 58% 29.92 in 10.0 mi Calm Calm - N/A   Clear
1:15 AM 55.9 °F 43.2 °F 62% 29.92 in 10.0 mi SSW 3.5 mph - N/A   Clear
1:35 AM 55.6 °F 43.0 °F 63% 29.92 in 10.0 mi Calm Calm - N/A   Clear
1:55 AM 55.9 °F 41.2 °F 58% 29.92 in 10.0 mi Calm Calm - N/A   Clear
2:15 AM 54.3 °F 40.6 °F 60% 29.92 in 10.0 mi Calm Calm - N/A   Clear
2:35 AM 50.7 °F 41.2 °F 70% 29.92 in 10.0 mi Calm Calm - N/A   Clear
2:55 AM 50.0 °F 41.2 °F 72% 29.92 in 10.0 mi Calm Calm - N/A   Clear
3:15 AM 51.6 °F 41.7 °F 69% 29.93 in 10.0 mi SW 3.5 mph - N/A   Clear
3:35 AM 49.6 °F 41.7 °F 74% 29.92 in 10.0 mi Calm Calm - N/A   Clear
3:55 AM 47.7 °F 41.2 °F 78% 29.92 in 10.0 mi SSW 5.8 mph - N/A   Clear
4:15 AM 50.2 °F 38.8 °F 65% 29.93 in 10.0 mi SSW 3.5 mph - N/A   Clear
4:35 AM 50.7 °F 37.0 °F 59% 29.93 in 10.0 mi South 4.6 mph - N/A   Clear
4:55 AM 51.1 °F 37.2 °F 59% 29.93 in 10.0 mi Calm Calm - N/A   Clear
5:15 AM 50.5 °F 38.3 °F 63% 29.93 in 10.0 mi Calm Calm - N/A   Clear
5:35 AM 49.5 °F 40.1 °F 70% 29.93 in 10.0 mi Calm Calm - N/A   Clear
5:55 AM 47.5 °F 40.1 °F 76% 29.93 in 10.0 mi South 4.6 mph - N/A   Clear
6:15 AM 49.1 °F 39.4 °F 69% 29.94 in 10.0 mi SSW 3.5 mph - N/A   Clear
6:35 AM 51.4 °F 37.9 °F 60% 29.94 in 10.0 mi Calm Calm - N/A   Clear
6:55 AM 53.2 °F 38.8 °F 58% 29.94 in 10.0 mi South 4.6 mph - N/A   Clear
7:15 AM 55.2 °F 39.6 °F 56% 29.94 in 10.0 mi South 3.5 mph - N/A   Clear
7:35 AM 57.2 °F 40.8 °F 54% 29.94 in 10.0 mi South 4.6 mph - N/A   Clear
7:55 AM 61.3 °F 41.9 °F 49% 29.95 in 10.0 mi SSW 3.5 mph - N/A   Clear
8:15 AM 64.4 °F 45.3 °F 50% 29.95 in 10.0 mi South 3.5 mph - N/A   Clear
8:35 AM 66.0 °F 42.8 °F 43% 29.95 in 10.0 mi Calm Calm - N/A   Clear
8:55 AM 66.7 °F 43.7 °F 43% 29.95 in 10.0 mi Calm Calm - N/A   Clear
9:15 AM 69.1 °F 43.7 °F 40% 29.95 in 10.0 mi Calm Calm - N/A   Clear
9:35 AM 72.0 °F 42.6 °F 35% 29.95 in 10.0 mi Calm Calm - N/A   Clear
9:55 AM 74.5 °F 38.7 °F 27% 29.95 in 10.0 mi Calm Calm - N/A   Clear
10:15 AM 76.8 °F 38.3 °F 25% 29.95 in 10.0 mi Calm Calm - N/A   Clear
10:35 AM 77.7 °F 34.7 °F 21% 29.95 in 10.0 mi Calm Calm - N/A   Clear
10:55 AM 78.3 °F 27.7 °F 16% 29.95 in 10.0 mi NW 6.9 mph - N/A   Clear
11:15 AM 79.0 °F 23.9 °F 13% 29.95 in 10.0 mi NW 5.8 mph - N/A   Clear
11:35 AM 80.8 °F 25.2 °F 13% 29.94 in 10.0 mi WNW 5.8 mph - N/A   Clear
11:55 AM 79.9 °F 28.6 °F 15% 29.94 in 10.0 mi NE 4.6 mph - N/A   Clear
12:15 PM 82.0 °F 22.3 °F 11% 29.93 in 10.0 mi NE 3.5 mph - N/A   Clear
12:35 PM 83.5 °F 21.6 °F 10% 29.92 in 10.0 mi Calm Calm - N/A   Clear
12:55 PM 83.7 °F 23.7 °F 11% 29.92 in 10.0 mi East 9.2 mph - N/A   Clear
1:15 PM 84.4 °F 23.4 °F 11% 29.91 in 10.0 mi SE 10.4 mph 18.4 mph N/A   Clear
1:35 PM 83.5 °F 19.6 °F 9% 29.90 in 10.0 mi East 5.8 mph - N/A   Clear
1:55 PM 84.2 °F 24.1 °F 11% 29.89 in 10.0 mi East 8.1 mph 17.3 mph N/A   Clear
2:15 PM 80.2 °F 25.3 °F 13% 29.89 in 10.0 mi East 11.5 mph - N/A   Clear
2:35 PM 80.2 °F 26.4 °F 14% 29.89 in 10.0 mi East 10.4 mph 17.3 mph N/A   Scattered Clouds
2:55 PM 80.8 °F 28.6 °F 15% 29.88 in 10.0 mi East 10.4 mph 23.0 mph N/A   Scattered Clouds
3:15 PM 80.1 °F 31.5 °F 17% 29.89 in 10.0 mi East 10.4 mph - N/A   Clear
3:35 PM 80.4 °F 28.0 °F 15% 29.89 in 10.0 mi ENE 9.2 mph 16.1 mph N/A   Clear
3:55 PM 80.1 °F 25.0 °F 13% 29.88 in 10.0 mi ENE 10.4 mph 16.1 mph N/A   Clear
4:15 PM 79.3 °F 32.0 °F 18% 29.89 in 10.0 mi East 8.1 mph - N/A   Clear
4:35 PM 77.9 °F 33.4 °F 20% 29.90 in 10.0 mi East 6.9 mph 17.3 mph N/A   Clear
4:55 PM 76.6 °F 36.9 °F 24% 29.92 in 10.0 mi Calm Calm - N/A   Scattered Clouds
5:15 PM 76.3 °F 36.0 °F 23% 29.90 in 10.0 mi NNW 4.6 mph - N/A   Scattered Clouds
5:35 PM 75.9 °F 34.5 °F 22% 29.91 in 10.0 mi NNE 3.5 mph - N/A   Mostly Cloudy
5:55 PM 76.8 °F 30.2 °F 18% 29.91 in 10.0 mi ESE 18.4 mph 29.9 mph N/A   Scattered Clouds
6:15 PM 78.6 °F 29.8 °F 17% 29.89 in 10.0 mi NNE 6.9 mph 24.2 mph N/A   Mostly Cloudy
6:35 PM 76.3 °F 35.8 °F 23% 29.88 in 10.0 mi North 4.6 mph - N/A   Scattered Clouds
6:55 PM 75.9 °F 33.3 °F 21% 29.89 in 10.0 mi Calm Calm - N/A   Clear
7:15 PM 73.8 °F 37.0 °F 26% 29.89 in 10.0 mi WNW 4.6 mph - N/A   Clear
7:35 PM 68.7 °F 41.4 °F 37% 29.89 in 10.0 mi NNW 3.5 mph - N/A   Clear
7:55 PM 69.6 °F 36.7 °F 30% 29.88 in 10.0 mi WNW 10.4 mph - N/A   Clear
8:15 PM 70.0 °F 35.4 °F 28% 29.89 in 10.0 mi Calm Calm - N/A   Clear
8:35 PM 69.3 °F 32.9 °F 26% 29.89 in 10.0 mi West 5.8 mph - N/A   Clear
8:55 PM 69.6 °F 34.0 °F 27% 29.89 in 10.0 mi Calm Calm - N/A   Clear
9:15 PM 67.6 °F 36.5 °F 32% 29.88 in 10.0 mi Calm Calm - N/A   Clear
9:35 PM 65.5 °F 36.5 °F 34% 29.90 in 10.0 mi Calm Calm - N/A   Clear
9:55 PM 66.9 °F 34.7 °F 30% 29.89 in 10.0 mi SW 4.6 mph - N/A   Clear
10:15 PM 64.8 °F 34.7 °F 33% 29.90 in 10.0 mi South 8.1 mph - N/A   Clear
10:35 PM 63.5 °F 33.4 °F 33% 29.89 in 10.0 mi WSW 4.6 mph - N/A   Clear
10:55 PM 63.1 °F 35.4 °F 36% 29.89 in 10.0 mi South 3.5 mph - N/A   Clear
11:15 PM 63.0 °F 34.5 °F 35% 29.89 in 10.0 mi Calm Calm - N/A   Clear
11:35 PM 63.0 °F 33.8 °F 34% 29.88 in 10.0 mi SSW 3.5 mph - N/A Thunderstorm Scattered Clouds
11:55 PM 60.8 °F 36.0 °F 40% 29.87 in 10.0 mi SSW 4.6 mph - N/A   Clear